, NM

(GMT )
Holloman AFB

Weather History for KHMN - December, 2013

Change the Weather History Date:

Wednesday, December 25, 2013

  Actual Average Record
Temperature  
Mean Temperature 37 °F -  
Max Temperature 49 °F 50 °F 65 °F (2008)
Min Temperature 25 °F 23 °F 17 °F (1998)
Degree Days  
Heating Degree Days 28    
Moisture  
Dew Point 24 °F    
Average Humidity 63    
Maximum Humidity 82    
Minimum Humidity 39    
Precipitation  
Precipitation 0.00 in - - ()
Sea Level Pressure  
Sea Level Pressure 30.32 in    
Wind  
Wind Speed 6 mph (NNE)    
Max Wind Speed 10 mph    
Max Gust Speed -    
Visibility 10 miles    
Events      
Averages and records for this station are not official NWS values.
T = Trace of Precipitation, MM = Missing Value Source: NWS Daily Summary

Daily Weather History Graph

Daily Weather History Graph

Search for Another Location

Airport or City:

Trip Planner

Search our weather history database for the weather conditions in past years. The results will help you decide how hot, cold, wet, or windy it might be!

Date:

Astronomy

Dec. 25, 2013 Rise Set
Actual Time 7:04 AM MST 5:04 PM MST
Civil Twilight 6:37 AM MST 5:31 PM MST
Nautical Twilight 6:06 AM MST 6:02 PM MST
Astronomical Twilight 5:36 AM MST 6:32 PM MST
Moon No Moon Rise 11:54 AM MST (12/25)
Length of Visible Light 10h 54m
Length of Day
9h 59m
Waning Gibbous, 48% of the Moon is Illuminated
Dec 25
Waning Gibbous
Jan 1
New
Jan 7
First Quarter
Jan 15
Full
Jan 23
Last Quarter

Hourly Weather History & Observations

Time (MST) Temp. Windchill Dew Point Humidity Pressure Visibility Wind Dir Wind Speed Gust Speed Precip Events Conditions
12:58 AM 27.7 °F 18.2 °F 21.2 °F 77% 30.19 in 10.0 mi NW 10.4 mph - N/A   Clear
1:58 AM 27.3 °F 19.1 °F 21.0 °F 77% 30.19 in 10.0 mi NW 8.1 mph - N/A   Clear
2:58 AM 28.0 °F 20.0 °F 21.0 °F 75% 30.20 in 10.0 mi NNW 8.1 mph - N/A   Clear
3:58 AM 33.1 °F - 22.6 °F 66% 30.21 in 10.0 mi NNW 2.3 mph - N/A   Clear
4:58 AM 27.0 °F 20.5 °F 21.2 °F 79% 30.25 in 10.0 mi NE 5.8 mph - N/A   Clear
5:58 AM 25.9 °F 18.2 °F 21.2 °F 82% 30.30 in 10.0 mi NE 6.9 mph - N/A   Clear
6:58 AM 26.1 °F 18.4 °F 21.2 °F 82% 30.34 in 10.0 mi East 6.9 mph - N/A   Clear
7:58 AM 28.4 °F 21.2 °F 23.0 °F 80% 30.36 in 10.0 mi ENE 6.9 mph - N/A   Clear
8:58 AM 34.9 °F 29.9 °F 25.2 °F 68% 30.38 in 10.0 mi East 5.8 mph - N/A   Clear
9:58 AM 40.6 °F 35.4 °F 26.2 °F 57% 30.38 in 10.0 mi ESE 8.1 mph - N/A   Clear
10:58 AM 44.4 °F 40.5 °F 27.1 °F 51% 30.38 in 10.0 mi SE 6.9 mph - N/A   Clear
11:58 AM 46.2 °F 43.3 °F 26.1 °F 45% 30.34 in 10.0 mi SE 5.8 mph - N/A   Clear
12:58 PM 48.0 °F - 26.2 °F 43% 30.31 in 10.0 mi ESE 4.6 mph - N/A   Clear
1:58 PM 49.5 °F - 25.9 °F 40% 30.29 in 10.0 mi SE 6.9 mph - N/A   Clear
2:58 PM 49.6 °F - 25.3 °F 39% 30.29 in 10.0 mi Calm Calm - N/A   Clear
3:58 PM 49.6 °F - 25.3 °F 39% 30.28 in 10.0 mi SSW 2.3 mph - N/A   Clear
4:58 PM 48.4 °F - 26.1 °F 42% 30.31 in 10.0 mi SW 2.3 mph - N/A   Clear
5:58 PM 44.2 °F - 26.4 °F 50% 30.33 in 10.0 mi WSW 2.3 mph - N/A   Clear
6:58 PM 39.0 °F 35.7 °F 26.1 °F 60% 30.36 in 10.0 mi West 4.6 mph - N/A   Clear
7:58 PM 36.0 °F - 25.3 °F 65% 30.39 in 10.0 mi Calm Calm - N/A   Clear
8:58 PM 30.7 °F 27.3 °F 23.5 °F 75% 30.39 in 10.0 mi North 3.5 mph - N/A   Clear
9:58 PM 31.3 °F 26.6 °F 23.5 °F 73% 30.38 in 10.0 mi NNW 4.6 mph - N/A   Clear
10:58 PM 30.7 °F 24.9 °F 23.4 °F 74% 30.37 in 10.0 mi NNW 5.8 mph - N/A   Clear
11:58 PM 32.0 °F 26.4 °F 23.2 °F 70% 30.37 in 10.0 mi NNW 5.8 mph - N/A   Clear